GFSFLT1_con_lsi_159.txt.gz
Lid_Strength_Index
5 4 4 4 3 3 2 2 1 1 1 1 1 0 0 0 -0 0 0 0 0 0 0 0 -1 -1 -1 -1 -1 -1 -1 -1 -1
6 5 4 4 3 3 2 2 2 1 1 1 1 1 0 0 -0 0 0 -0 -0 -0 -0 -0 -1 -1 -1 -1 -1 -1 -1 -0 -0
6 5 4 3 3 3 2 2 1 1 1 1 1 0 0 0 0 -0 -0 -0 -0 -0 -0 -1 -1 -1 -1 -1 -1 -1 -1 -0 -1
6 5 4 4 3 3 2 2 1 1 1 1 1 1 0 0 0 -0 -0 0 -0 -0 -1 -1 -0 -1 -1 -0 -0 -1 -0 -0 -0
5 5 4 3 3 3 3 2 2 2 1 1 1 1 0 0 0 0 0 0 -0 -1 -0 -1 -1 -1 -0 -0 -0 -1 -0 0 -0
5 5 4 4 3 3 3 3 2 2 1 1 1 1 1 1 1 1 0 0 -0 -0 -0 -0 -1 -0 -0 -0 -0 -0 -0 -0 -0
5 5 4 4 3 4 3 3 3 2 2 1 1 1 1 1 1 1 0 0 -0 -0 -0 -0 -0 -0 -0 -0 -0 -0 -0 -0 -0
5 5 5 4 4 3 3 3 2 2 2 1 1 1 1 1 1 0 0 0 0 -0 -0 -0 -0 -0 -0 -0 -0 -0 -0 -0 -0
5 5 5 4 4 3 3 3 2 2 2 1 1 1 2 1 1 0 1 0 0 0 0 0 -0 0 0 0 0 2 2 0 -0
6 5 5 4 4 3 3 2 2 2 2 1 1 1 1 1 1 1 1 0 0 1 1 0 0 0 0 0 -0 4 4 3 -0
5 4 4 4 3 3 2 2 2 1 1 1 1 2 1 1 1 1 1 1 1 1 1 1 1 1 0 0 0 5 5 3 -0
4 3 3 3 2 2 2 2 1 2 2 2 2 2 2 1 1 1 1 1 1 1 1 1 1 0 0 0 0 7 6 3 0
4 3 3 3 2 2 2 2 1 2 2 2 2 2 1 1 1 1 1 1 1 1 1 1 1 1 0 3 1 7 6 5 0
3 3 3 2 2 3 2 1 2 3 3 3 1 1 1 1 1 1 1 1 1 1 1 1 2 3 3 3 3 4 7 6 1
3 3 3 2 3 2 2 1 2 3 3 1 1 1 2 2 1 1 1 1 1 1 2 3 4 4 4 4 4 8 7 7 5
3 3 3 2 3 2 2 1 2 3 2 1 1 2 2 2 2 2 1 2 2 3 3 4 4 4 6 6 6 7 8 8 8
3 3 3 2 3 3 3 2 2 2 1 1 2 2 2 2 2 3 4 3 2 2 3 4 4 5 6 6 6 6 6 6 6
3 3 3 2 3 3 3 2 2 2 1 1 3 3 4 4 4 5 9 11 12 7 7 5 4 5 5 6 7 8 8 7 6
3 3 3 3 2 2 2 2 2 2 2 3 5 5 5 4 5 6 7 7 9 13 12 13 13 12 9 10 11 12 13 13 12
4 3 3 2 3 2 2 2 2 2 2 3 3 4 4 5 5 6 6 5 6 8 10 13 14 14 13 12 13 13 14 14 13

GFSFLT1_con_lsi_162.txt.gz
Lid_Strength_Index
4 4 3 3 2 2 2 1 1 1 1 1 0 0 -0 -0 -0 0 0 -0 -0 0 -0 -0 -1 -1 -1 -1 -1 -1 -1 -0 -1
5 4 3 3 2 2 2 1 1 1 1 1 0 0 0 -0 -0 -0 -0 -1 -1 -0 -1 -1 -1 -1 -1 -1 -1 -1 -1 -0 -0
5 4 4 3 3 2 2 1 1 1 0 1 0 0 0 0 -0 -0 -1 -1 -0 -1 -1 -1 -1 -1 -1 -1 -1 -1 -1 -1 -1
5 4 4 3 2 2 2 1 1 1 1 1 1 0 0 0 -0 -0 -0 -0 -0 -1 -1 -1 -1 -1 -1 -1 -1 -1 -1 -1 -1
4 4 4 3 2 2 2 2 1 1 1 1 0 0 0 0 -0 -0 -0 0 -0 -1 -1 -1 -1 -1 -1 -1 -1 -1 -1 -0 -1
5 4 4 3 3 2 2 2 2 1 1 1 0 0 0 0 0 0 0 -0 -0 -1 -1 -1 -1 -1 -0 -1 -1 -1 -1 -1 -0
4 4 4 4 3 3 2 2 2 2 1 1 1 0 0 1 0 0 0 -0 -0 -0 -1 -0 -0 -1 -1 -1 -1 -1 -1 -1 -1
5 4 4 4 3 3 3 2 2 2 1 1 0 1 1 1 0 -0 -0 -0 -0 -0 -0 -0 -1 -0 -1 -1 -0 -0 -0 -1 -0
5 4 4 3 3 3 3 3 3 2 2 2 1 1 1 0 0 0 0 0 0 -0 -0 -0 -0 -0 -0 -0 0 2 2 0 -0
5 4 4 3 3 2 2 2 2 2 1 1 1 1 1 1 1 1 0 0 0 0 0 -0 0 0 -0 0 -0 4 3 2 -0
4 4 3 3 2 2 1 1 1 1 1 1 1 1 1 1 1 1 1 0 1 0 0 1 0 0 -0 -0 -0 5 5 3 -0
3 3 2 2 1 2 2 2 1 1 2 2 1 2 1 1 1 1 1 1 1 1 1 1 1 0 0 0 0 6 6 3 -0
3 2 2 2 2 2 1 1 1 1 2 2 2 1 1 1 0 1 1 1 1 0 0 1 1 0 0 1 0 8 7 3 0
2 2 2 2 2 2 1 1 1 2 2 2 1 1 1 1 0 1 1 1 0 1 1 1 1 1 0 0 1 3 8 7 0
2 2 2 2 2 2 1 1 1 2 2 1 1 1 1 1 1 1 1 1 1 1 1 2 2 2 2 1 0 5 8 8 6
2 2 2 2 2 2 1 1 1 2 2 1 1 1 1 2 2 2 1 1 1 2 2 2 2 2 3 3 3 3 9 8 7
2 2 2 2 2 2 2 1 1 1 1 1 1 2 2 2 3 3 4 5 3 2 2 2 3 4 5 6 5 5 5 5 6
2 2 2 2 2 2 2 1 1 1 1 1 1 2 3 2 3 5 7 9 10 6 8 5 2 4 5 6 6 6 7 7 6
2 2 2 2 2 2 2 2 1 2 1 1 2 4 3 3 4 5 6 7 8 12 12 12 13 13 8 10 11 12 13 13 12
3 2 2 2 2 2 2 1 2 1 2 1 3 4 4 3 4 4 5 6 6 7 9 12 14 14 13 13 14 14 13 13 12

GFSFLT1_con_lsi_165.txt.gz
Lid_Strength_Index
4 4 3 3 2 2 2 1 1 1 1 1 0 0 0 -0 -1 0 0 -0 -0 0 1 0 -1 -1 -1 -1 -1 -1 -1 -0 -0
5 4 3 3 2 2 2 1 1 1 1 1 0 0 0 0 -0 -0 -0 -1 -1 -0 -1 -0 -1 -1 -1 -1 -1 -1 -1 -0 -1
5 4 4 3 2 2 2 2 1 1 0 1 0 0 0 0 0 -0 -0 -1 -0 -1 0 -1 -0 -1 -1 -1 -1 -1 -1 -1 -1
4 4 4 3 2 2 1 1 2 1 1 1 1 0 0 0 0 -0 -0 -0 -0 -0 -1 -1 -1 -1 -1 -1 -1 -1 -1 -1 -1
4 4 3 3 2 2 2 2 1 1 1 1 1 0 0 0 -0 -0 0 0 -0 -1 -0 -1 -1 -1 -0 -1 -1 -1 -0 0 -0
4 4 4 3 2 2 2 2 1 1 1 1 1 0 0 0 0 0 0 0 -0 -1 -0 -0 -1 -0 -0 -0 -0 -0 -1 -0 -0
4 4 4 3 3 3 2 2 2 1 1 1 0 1 1 1 0 0 0 0 -0 -0 -0 -0 -0 -0 -0 -0 -0 -0 -0 -0 -0
4 4 4 3 3 3 2 2 2 1 1 1 0 1 1 1 0 -0 -0 -0 -0 -0 -0 -0 -0 -0 -0 -0 -0 -0 -0 -0 -0
4 4 4 3 3 3 3 2 2 2 1 1 1 1 1 0 0 0 0 0 0 -0 0 -0 -0 0 0 0 0 1 2 0 0
4 4 3 3 3 2 2 2 2 3 2 1 2 1 1 1 0 1 1 0 0 1 1 0 0 0 0 0 0 3 3 1 -0
4 3 3 3 2 2 2 1 1 1 2 2 2 2 2 1 1 1 1 1 1 1 0 1 1 1 0 0 0 5 5 2 -0
3 3 2 2 1 1 1 1 1 1 1 1 1 2 1 1 1 1 1 1 1 1 1 1 1 0 0 0 0 6 6 3 0
3 2 2 2 1 1 1 1 1 1 2 1 2 1 1 0 1 1 1 1 1 1 0 1 1 1 0 2 0 8 7 3 0
2 2 2 1 1 1 1 1 1 2 2 2 1 0 1 1 1 1 1 1 0 1 1 1 1 1 0 0 1 1 8 7 0
2 2 2 1 2 2 1 1 1 1 2 1 1 1 1 1 1 1 1 1 1 1 1 1 2 1 1 0 0 5 8 8 8
2 2 2 1 1 1 1 1 1 2 1 1 1 1 1 1 1 1 1 1 2 2 2 2 2 2 3 2 2 2 8 8 7
2 2 2 1 1 2 2 1 1 1 1 1 1 2 1 1 1 3 5 4 5 2 2 2 3 4 3 3 3 4 5 6 7
2 2 1 1 2 2 2 1 1 1 1 1 1 1 2 2 3 3 5 8 9 8 7 8 2 2 2 3 5 6 7 7 6
2 2 1 2 1 2 1 1 1 1 0 1 1 2 2 3 3 3 4 5 7 11 12 13 12 13 6 9 11 13 13 14 13
3 2 2 2 2 1 1 1 2 1 1 1 2 2 3 2 3 3 4 4 5 7 9 12 13 13 12 11 13 13 14 13 12

GFSFLT1_con_lsi_168.txt.gz
Lid_Strength_Index
5 4 3 4 4 3 3 3 2 2 2 2 1 1 1 1 0 0 1 0 0 0 1 1 -0 -0 -0 -1 -1 -1 -1 -0 -0
5 5 4 4 3 3 3 3 2 2 2 2 1 1 1 1 0 0 1 0 -0 0 0 0 0 -0 -0 -0 -1 -1 -1 0 0
5 4 4 3 3 3 2 2 2 1 1 2 1 1 1 1 1 0 0 -0 0 0 -0 0 0 -0 -0 -0 -0 -0 -1 0 -0
6 4 4 3 3 2 2 2 2 2 2 2 1 1 1 1 1 1 0 0 0 -0 1 1 0 0 0 -0 -0 -0 -0 0 -0
4 4 3 3 3 2 2 2 2 2 2 2 1 1 1 1 1 1 1 1 0 -0 1 1 2 -0 0 -0 -0 -0 0 1 0
4 4 3 3 3 3 2 2 2 2 2 2 1 1 1 1 1 1 1 1 0 0 0 0 0 -0 0 0 0 0 0 0 1
4 4 4 3 3 2 2 1 2 2 2 2 1 1 1 1 1 1 1 1 0 0 -0 0 0 0 0 0 0 0 0 0 0
4 4 4 4 3 3 2 2 2 2 1 1 1 2 1 1 1 0 1 0 0 0 0 0 0 0 0 0 0 0 0 0 0
5 4 4 3 3 3 3 2 2 2 2 1 2 2 3 1 1 1 1 1 1 1 1 0 0 1 1 1 1 2 2 1 1
4 4 4 3 3 3 3 2 2 2 2 1 1 2 2 2 1 1 1 1 1 1 1 1 1 1 1 1 1 2 4 2 1
4 4 3 3 3 3 2 2 2 1 1 1 2 2 1 1 1 1 1 1 1 1 1 1 1 1 1 1 1 4 5 3 0
3 3 2 2 2 2 2 1 1 1 1 2 2 2 2 2 1 1 1 2 1 1 1 1 1 1 1 1 1 6 7 4 1
3 2 2 2 1 1 1 1 0 1 2 2 2 2 1 1 1 1 1 1 1 1 1 1 1 1 1 2 1 6 7 5 1
2 2 2 1 1 1 0 -0 0 1 2 2 1 1 1 1 1 1 1 1 1 1 1 1 1 1 1 1 1 1 8 7 1
2 2 2 1 2 2 1 0 -0 1 2 1 1 1 1 1 1 1 1 1 1 1 1 2 2 2 2 1 1 4 8 7 7
2 2 2 1 2 2 0 0 -0 2 1 1 1 1 1 1 1 1 1 1 2 2 1 2 2 2 2 2 2 4 7 7 7
2 2 2 1 2 2 2 0 1 1 1 1 1 2 2 1 2 2 2 3 4 3 2 2 2 3 3 3 4 5 5 6 6
2 2 2 1 2 2 2 1 1 1 1 1 2 2 1 2 2 2 4 8 10 7 5 8 4 2 2 4 4 5 8 7 6
2 2 2 2 2 2 2 1 1 1 1 1 2 2 2 2 2 2 3 4 7 12 12 13 13 11 7 11 11 13 14 14 13
2 2 2 2 2 2 2 2 1 1 1 1 1 2 2 2 3 3 4 4 5 6 9 11 13 13 12 11 13 13 14 14 13

GFSFLT1_con_lsi_171.txt.gz
Lid_Strength_Index
5 5 4 5 4 4 3 3 2 2 2 2 2 1 1 1 1 1 1 1 2 1 1 1 0 0 0 0 0 1 1 1 1
6 5 5 5 4 3 3 3 2 2 2 2 2 2 1 1 1 1 1 1 1 1 1 0 0 1 0 0 0 0 0 1 1
7 5 5 4 4 4 3 2 2 2 2 2 2 1 1 1 1 1 1 1 1 1 0 0 2 2 2 1 1 0 1 1 1
6 6 5 4 4 3 3 2 2 2 2 2 2 1 1 1 1 1 1 1 1 2 1 0 3 0 1 1 1 0 1 1 1
6 5 5 4 4 3 3 3 3 2 2 2 2 2 2 1 1 1 1 1 1 2 4 3 1 0 3 2 1 1 1 1 1
6 5 5 4 4 4 4 3 3 2 3 2 1 2 3 1 1 1 1 1 1 1 2 3 1 1 1 1 1 1 1 1 1
6 6 5 5 5 4 4 3 3 3 3 2 2 2 2 2 2 1 1 1 1 1 1 1 1 1 1 1 1 1 1 1 1
6 6 5 5 5 4 4 4 3 3 2 3 2 2 2 2 2 2 1 1 1 1 1 1 1 1 1 1 1 0 1 1 1
6 6 5 5 4 4 4 4 3 3 2 2 2 2 2 1 3 3 3 1 1 1 1 1 1 1 1 1 1 2 2 1 1
6 6 5 5 4 4 4 4 3 3 3 2 2 2 2 2 2 2 3 3 3 1 1 1 1 1 1 1 1 3 3 3 2
6 5 5 4 4 4 3 3 3 2 2 2 2 2 2 2 3 2 1 1 2 2 1 1 1 1 1 1 1 4 4 3 2
5 4 4 4 3 3 3 3 2 2 3 3 3 3 2 2 2 2 2 2 2 2 2 2 2 1 1 1 1 5 5 5 3
4 4 4 4 3 3 3 3 2 3 3 3 3 3 2 2 2 2 2 2 2 2 1 2 2 2 1 3 2 5 7 6 2
4 4 4 3 3 3 3 3 2 3 3 3 3 2 2 2 2 2 1 2 2 2 2 2 2 2 2 2 2 2 8 7 2
4 4 3 3 4 4 3 3 3 4 3 2 2 2 2 2 2 2 2 2 2 2 2 3 3 3 2 2 2 6 7 9 7
4 4 4 3 3 4 3 3 2 3 3 2 2 3 2 2 2 2 3 4 4 3 2 3 3 3 3 3 4 5 9 9 8
4 4 4 3 4 4 4 3 2 2 2 2 3 3 3 3 3 3 4 5 6 4 4 3 3 3 3 3 4 5 6 6 6
4 4 4 3 4 4 4 3 3 2 2 2 3 3 3 3 3 3 8 11 11 10 8 9 5 3 2 3 4 5 7 8 6
4 4 4 4 4 4 3 3 3 2 2 2 3 4 3 2 2 3 4 7 10 12 13 13 13 13 9 8 10 13 14 14 12
4 4 4 4 4 3 3 3 3 2 2 2 3 3 3 3 4 3 3 5 7 7 9 11 13 14 12 11 12 13 14 14 13

GFSFLT1_con_lsi_174.txt.gz
Lid_Strength_Index
6 6 5 5 4 4 3 3 2 2 2 2 2 1 1 1 2 3 3 2 1 2 1 1 1 1 1 1 1 1 1 1 1
6 6 5 5 4 3 3 3 3 2 2 2 2 1 1 2 2 1 1 1 2 1 1 0 0 0 1 1 1 1 1 1 1
7 6 5 5 4 3 3 2 2 2 2 2 2 1 1 1 2 1 1 1 1 1 1 2 2 2 2 1 1 1 0 2 1
7 6 5 5 4 3 3 2 2 2 2 2 2 1 1 1 1 1 1 1 1 1 1 1 1 2 3 1 1 2 1 2 1
6 5 5 4 4 4 3 3 3 2 2 2 1 1 1 1 1 1 1 1 1 1 2 2 2 1 2 1 1 1 1 1 1
6 5 5 5 4 4 4 3 3 3 2 2 1 2 2 1 1 1 1 1 1 1 2 3 3 1 1 2 2 1 1 1 2
6 6 5 5 5 4 4 3 3 3 2 2 2 1 2 3 2 2 1 1 1 2 2 4 5 2 1 1 1 1 1 1 2
6 6 6 5 5 4 4 4 3 3 3 3 3 2 2 2 2 2 3 3 2 2 1 2 3 3 1 1 1 1 1 1 1
7 6 5 5 4 4 4 4 3 3 3 4 3 2 2 1 1 2 3 4 4 4 2 1 1 1 1 1 1 2 2 1 1
6 6 5 5 5 4 4 4 3 3 3 3 3 3 2 2 2 2 1 2 3 3 3 2 1 1 1 1 1 3 4 3 2
6 5 5 5 4 4 4 3 3 3 2 2 3 3 2 2 2 2 2 1 2 1 1 2 1 1 1 1 1 4 4 3 2
5 5 4 4 4 4 3 3 2 2 3 2 3 3 3 2 3 3 2 2 2 1 1 1 1 1 1 1 1 5 5 4 3
4 4 4 4 4 4 4 3 2 3 3 3 3 3 2 2 3 3 3 2 2 1 1 1 1 1 1 3 1 5 6 5 3
5 5 4 4 4 3 3 4 4 4 3 3 2 2 2 2 2 2 2 2 1 2 2 2 2 2 2 2 3 2 7 8 3
6 6 5 4 4 4 4 3 3 3 3 2 2 2 3 2 2 2 2 2 2 2 2 2 3 2 2 3 2 7 7 9 8
6 5 5 4 4 4 3 3 3 3 3 3 3 2 3 3 3 3 4 4 4 5 4 4 4 3 4 4 2 3 8 9 9
5 5 4 4 4 4 4 3 3 2 3 3 3 3 3 3 3 4 4 6 7 5 4 4 3 3 3 3 3 4 4 5 5
5 4 4 4 4 4 4 3 3 3 3 2 3 3 3 3 3 4 8 11 10 8 8 9 6 4 3 3 3 3 7 7 6
4 4 4 4 4 4 4 4 3 3 2 2 3 4 3 3 4 4 6 9 10 11 12 13 14 14 12 6 10 11 12 14 13
4 4 4 4 4 4 3 3 4 3 3 3 3 4 4 3 4 3 5 6 6 6 10 12 13 14 13 13 10 13 13 13 13